Stewart International Airport Newburgh US
ICAO: KSWF
IATA: SWF
Category: Medium
Scheduled Services: Yes

Elevation: 491 ft
TransAlt. 18000 ft.

Airport Communications:
105 AW COMD POST:37.94
ATIS:124.575
NEW YORK CNTR:132.75
GND:121.9
AR OPS:38.5
ARMY OPS:49.75
TWR:121
UNICOM:122.95

KSWF Zoom In..

If you have problems with the map follow the link
https://www.worldairports.se/pages/airport.php?
ICAO=KSWF

Runways:

(A) RW 09 length 11817 ft width 150 ft
ILS 110.10 / hdg 92

(B) RW 16 length 6004 ft width 150 ft
---- / hdg 163

(C) RW 27 length 11817 ft width 150 ft
ILS 109.95 / hdg 272

(D) RW 34 length 6004 ft width 150 ft
---- / hdg 343

Location; KSWF
Day. 14 / Time. 11.45 Zulu
* Altimeter: 30.29
* Temperature: -01° c. -30.2°f.
* Wind from: 310° Speed 10 kn.
Dewpoint: -09° c.
Visibility: 10 Statute Miles.
Clouds: Broken 4000 ft.
Clouds: Overcast 6000 ft.

KSWF 141145Z 31010KT 10SM BKN040 OVC060 M01/M09 A3029


Wind From 310°
Speed 10 kn.

 
 
jpsmedia.com for Web Design worldairports.se 2018   terms of use